TimeEST,TemperatureF,Dew PointF,Humidity,Sea Level PressureIn,VisibilityMPH,Wind Direction,Wind SpeedMPH,Gust SpeedMPH,PrecipitationIn,Events,Conditions,WindDirDegrees,DateUTC
12:52 AM,17.1,6.1,62,30.44,10.0,Calm,Calm,-,N/A,,Clear,0,2013-01-19 05:52:00
1:52 AM,28.9,17.1,61,30.41,10.0,SW,9.2,-,N/A,,Clear,220,2013-01-19 06:52:00
2:52 AM,32.0,21.0,64,30.40,10.0,SSW,12.7,24.2,N/A,,Overcast,210,2013-01-19 07:52:00
3:52 AM,33.1,21.9,64,30.37,10.0,SW,15.0,24.2,N/A,,Mostly Cloudy,220,2013-01-19 08:52:00
4:52 AM,35.1,25.0,67,30.34,10.0,SW,16.1,31.1,N/A,,Overcast,220,2013-01-19 09:52:00
5:22 AM,35.6,26.6,70,30.32,10.0,SW,15.0,29.9,N/A,,Mostly Cloudy,220,2013-01-19 10:22:00
5:36 AM,35.6,26.6,70,30.32,10.0,SW,18.4,33.4,N/A,,Scattered Clouds,220,2013-01-19 10:36:00
5:52 AM,36.0,27.0,70,30.31,10.0,SW,19.6,29.9,N/A,,Scattered Clouds,220,2013-01-19 10:52:00
6:52 AM,37.0,28.9,73,30.30,10.0,SW,16.1,35.7,N/A,,Partly Cloudy,220,2013-01-19 11:52:00
7:52 AM,39.0,30.0,70,30.28,10.0,SW,17.3,31.1,N/A,,Scattered Clouds,230,2013-01-19 12:52:00
8:52 AM,41.0,32.0,70,30.28,10.0,SW,19.6,32.2,N/A,,Clear,220,2013-01-19 13:52:00
9:52 AM,42.1,34.0,73,30.27,10.0,SW,18.4,32.2,N/A,,Partly Cloudy,220,2013-01-19 14:52:00
10:52 AM,43.0,35.1,74,30.23,10.0,SW,13.8,27.6,N/A,,Overcast,220,2013-01-19 15:52:00
11:08 AM,42.8,35.6,76,30.21,10.0,SW,18.4,28.8,N/A,,Mostly Cloudy,220,2013-01-19 16:08:00
11:52 AM,44.1,36.0,73,30.18,10.0,SW,16.1,31.1,N/A,,Mostly Cloudy,230,2013-01-19 16:52:00
12:01 PM,44.6,35.6,71,30.17,10.0,SW,18.4,28.8,N/A,,Partly Cloudy,230,2013-01-19 17:01:00
12:52 PM,45.0,36.0,71,30.16,10.0,SW,18.4,28.8,N/A,,Scattered Clouds,230,2013-01-19 17:52:00
1:52 PM,45.0,37.0,74,30.13,10.0,SW,13.8,29.9,N/A,,Partly Cloudy,230,2013-01-19 18:52:00
2:12 PM,44.6,37.4,76,30.12,10.0,SW,13.8,26.5,N/A,,Mostly Cloudy,220,2013-01-19 19:12:00
2:52 PM,44.1,37.0,76,30.11,10.0,SW,12.7,26.5,N/A,,Mostly Cloudy,220,2013-01-19 19:52:00
3:36 PM,44.6,37.4,76,30.09,10.0,SW,16.1,24.2,N/A,,Scattered Clouds,220,2013-01-19 20:36:00
4:52 PM,43.0,36.0,76,30.09,10.0,SW,13.8,24.2,N/A,,Clear,230,2013-01-19 21:52:00
5:52 PM,42.1,36.0,79,30.07,10.0,SW,11.5,19.6,N/A,,Clear,220,2013-01-19 22:52:00
6:52 PM,42.1,36.0,79,30.08,10.0,SW,9.2,17.3,N/A,,Clear,230,2013-01-19 23:52:00
7:52 PM,42.1,36.0,79,30.07,10.0,Variable,5.8,-,N/A,,Clear,0,2013-01-20 00:52:00
8:52 PM,41.0,37.0,86,30.06,10.0,SW,6.9,-,N/A,,Clear,230,2013-01-20 01:52:00
9:52 PM,42.1,37.9,85,30.04,9.0,SW,9.2,17.3,N/A,,Clear,230,2013-01-20 02:52:00
10:52 PM,42.1,37.9,85,30.02,9.0,SW,6.9,-,N/A,,Clear,220,2013-01-20 03:52:00
11:42 PM,42.8,39.2,87,29.99,9.0,SW,9.2,18.4,N/A,,Mostly Cloudy,220,2013-01-20 04:42:00
11:52 PM,43.0,39.9,89,30.00,9.0,SW,9.2,17.3,N/A,,Mostly Cloudy,230,2013-01-20 04:52:00